Date String (YYYY-MM-DD hh:mm:ss) UTC,Instrument flags,Ambient pressure (hPa),Sample flow (lpm),Bypass flow (lpm),Sample temperature (°C),Ambient temperature (°C),ASC tube jacket temperature (°C),LED temperature (°C),Box temperature (°C),Sample RH (%),Span deviation,Mass concentration (μg/m³),Mass concentration (μg/m³),Mass concentration (μg/m³)
DateTimeUTC,F1_M11,P_M11,Q1_M11,Q2_M11,T1_M11,T2_M11,T3_M11,T4_M11,T5_M11,U1_M11,ZSPAN_M11,X0_M11,X2_M11,X1_M11
2022-09-06 07:00:00,,0828.7,5.00,0.00,29.8,28.5,00.0,38.6,31.7,15.6,0000.0,0017.62,0006.98,0005.98
2022-09-06 07:01:00,,0828.8,5.01,0.00,29.9,28.6,00.0,38.6,31.7,15.6,0000.0,0017.53,0006.99,0005.97
2022-09-06 07:02:00,,0828.9,5.01,0.00,29.9,28.7,00.0,38.6,31.7,15.5,0000.0,0016.21,0006.95,0005.97
2022-09-06 07:03:00,,0828.9,4.98,0.00,29.9,28.8,00.0,38.6,31.8,15.6,0000.0,0015.13,0006.92,0005.95
2022-09-06 07:04:00,,0828.8,5.00,0.00,29.9,28.8,00.0,38.6,31.8,15.6,0000.0,0014.54,0006.90,0005.94
2022-09-06 07:05:00,,0828.6,4.99,0.00,30.0,28.9,00.0,38.7,31.9,15.6,0000.0,0014.47,0006.87,0005.93
2022-09-06 07:06:00,,0829.2,5.00,0.00,30.0,29.0,00.0,38.7,31.9,15.8,0000.0,0014.56,0006.89,0005.93
2022-09-06 07:07:00,,0828.7,5.01,0.00,30.0,29.0,00.0,38.7,31.9,15.9,0000.0,0015.00,0006.88,0005.93
2022-09-06 07:08:00,,0828.9,5.00,0.00,30.1,29.0,00.0,38.7,32.0,16.1,0000.0,0014.37,0006.88,0005.95
2022-09-06 07:09:00,,0828.8,4.99,0.00,30.0,27.9,00.0,38.7,31.8,15.9,0000.0,0013.59,0006.87,0005.97
2022-09-06 07:10:00,,0828.8,5.00,0.00,30.0,27.1,00.0,38.7,31.7,16.1,0000.0,0013.59,0006.86,0005.99
2022-09-06 07:11:00,,0828.9,5.00,0.00,30.0,27.2,00.0,38.7,31.7,16.3,0000.0,0013.44,0006.84,0006.03
2022-09-06 07:12:00,,0828.7,5.00,0.00,29.9,27.4,00.0,38.6,31.6,16.1,0000.0,0013.32,0006.88,0006.06
2022-09-06 07:13:00,,0828.8,5.01,0.00,29.9,27.7,00.0,38.6,31.6,16.0,0000.0,0014.07,0006.91,0006.08
2022-09-06 07:14:00,,0828.7,5.00,0.00,29.9,28.0,00.0,38.6,31.6,16.0,0000.0,0014.38,0006.95,0006.10
2022-09-06 07:15:00,,0828.7,5.00,0.00,29.9,28.2,00.0,38.6,31.7,16.0,0000.0,0014.56,0006.97,0006.11
2022-09-06 07:16:00,,0828.7,5.00,0.00,29.9,28.4,00.0,38.6,31.7,16.0,0000.0,0015.09,0007.03,0006.13
2022-09-06 07:17:00,,0828.7,5.00,0.00,29.9,28.6,00.0,38.6,31.8,16.0,0000.0,0015.72,0007.07,0006.13
2022-09-06 07:18:00,,0828.7,5.00,0.00,29.9,28.7,00.0,38.7,31.7,16.0,0000.0,0015.23,0007.07,0006.14
2022-09-06 07:19:00,,0828.7,5.01,0.00,29.9,28.8,00.0,38.7,31.8,16.1,0000.0,0016.02,0007.07,0006.15
2022-09-06 07:20:00,,0828.7,4.99,0.00,30.0,28.9,00.0,38.7,31.9,16.1,0000.0,0016.23,0007.13,0006.15
2022-09-06 07:21:00,,0828.7,5.01,0.00,30.0,29.0,00.0,38.7,31.9,16.2,0000.0,0015.54,0007.18,0006.16
2022-09-06 07:22:00,,0828.7,4.99,0.00,30.0,29.0,00.0,38.7,31.9,16.1,0000.0,0015.58,0007.21,0006.14
2022-09-06 07:23:00,,0828.7,5.00,0.00,30.1,28.4,00.0,38.7,31.9,16.1,0000.0,0015.63,0007.19,0006.13
2022-09-06 07:24:00,,0828.7,4.98,0.00,30.0,27.2,00.0,38.7,31.8,16.2,0000.0,0015.33,0007.22,0006.14
2022-09-06 07:25:00,,0828.7,5.01,0.00,30.0,27.1,00.0,38.7,31.7,16.2,0000.0,0015.93,0007.23,0006.15
2022-09-06 07:26:00,,0828.7,4.99,0.00,29.9,27.3,00.0,38.6,31.6,16.0,0000.0,0016.04,0007.26,0006.16
2022-09-06 07:27:00,,0828.8,5.01,0.00,29.9,27.6,00.0,38.6,31.6,16.1,0000.0,0015.93,0007.29,0006.17
2022-09-06 07:28:00,,0829.0,5.00,0.00,29.8,27.9,00.0,38.6,31.6,16.1,0000.0,0015.39,0007.27,0006.18
2022-09-06 07:29:00,,0829.1,5.00,0.00,29.8,28.1,00.0,38.6,31.6,16.0,0000.0,0015.28,0007.28,0006.19
2022-09-06 07:30:00,,0828.9,5.00,0.00,29.9,28.3,00.0,38.6,31.7,16.0,0000.0,0015.01,0007.28,0006.20
2022-09-06 07:31:00,,0829.0,5.00,0.00,29.9,28.5,00.0,38.6,31.7,16.0,0000.0,0014.33,0007.25,0006.20
2022-09-06 07:32:00,,0829.2,5.00,0.00,29.9,28.6,00.0,38.6,31.7,15.9,0000.0,0014.70,0007.24,0006.19
2022-09-06 07:33:00,,0829.1,5.00,0.00,29.9,28.7,00.0,38.6,31.8,15.9,0000.0,0015.12,0007.25,0006.19
2022-09-06 07:34:00,,0828.9,4.98,0.00,29.9,28.8,00.0,38.7,31.8,15.9,0000.0,0014.93,0007.23,0006.18
2022-09-06 07:35:00,,0828.9,5.00,0.00,30.0,28.9,00.0,38.7,31.9,15.9,0000.0,0014.74,0007.18,0006.16
2022-09-06 07:36:00,,0828.8,4.99,0.00,30.0,29.0,00.0,38.7,31.9,15.9,0000.0,0014.28,0007.19,0006.15
2022-09-06 07:37:00,,0828.6,5.01,0.00,30.0,29.0,00.0,38.7,31.9,15.8,0000.0,0014.11,0007.20,0006.15
2022-09-06 07:38:00,,0828.6,5.00,0.00,30.0,28.3,00.0,38.7,31.9,15.6,0000.0,0014.02,0007.16,0006.13
2022-09-06 07:39:00,,0828.8,4.98,0.00,30.0,27.2,00.0,38.7,31.8,15.6,0000.0,0014.02,0007.15,0006.12
2022-09-06 07:40:00,,0828.8,5.00,0.00,30.0,27.1,00.0,38.7,31.7,15.6,0000.0,0013.98,0007.15,0006.10
2022-09-06 07:41:00,,0829.0,5.02,0.00,29.9,27.3,00.0,38.6,31.6,15.7,0000.0,0014.07,0007.16,0006.09
2022-09-06 07:42:00,,0828.8,4.99,0.00,29.9,27.6,00.0,38.6,31.6,15.7,0000.0,0014.74,0007.16,0006.08
2022-09-06 07:43:00,,0828.9,5.00,0.00,29.9,27.9,00.0,38.6,31.6,15.7,0000.0,0014.06,0007.17,0006.06
2022-09-06 07:44:00,,0828.8,5.00,0.00,29.9,28.1,00.0,38.6,31.6,15.8,0000.0,0013.77,0007.16,0006.05
2022-09-06 07:45:00,,0828.6,5.00,0.00,29.8,28.3,00.0,38.6,31.7,15.9,0000.0,0014.69,0007.16,0006.04
2022-09-06 07:46:00,,0828.8,5.00,0.00,29.9,28.4,00.0,38.6,31.7,16.1,0000.0,0015.22,0007.19,0006.05
2022-09-06 07:47:00,,0828.7,5.01,0.00,29.9,28.6,00.0,38.6,31.7,16.3,0000.0,0014.98,0007.22,0006.07
2022-09-06 07:48:00,,0828.7,4.98,0.00,29.9,28.7,00.0,38.6,31.8,16.4,0000.0,0014.80,0007.18,0006.09
2022-09-06 07:49:00,,0828.6,5.00,0.00,29.9,28.8,00.0,38.6,31.7,16.3,0000.0,0015.00,0007.21,0006.13
2022-09-06 07:50:00,,0828.7,5.01,0.00,30.0,28.8,00.0,38.7,31.8,16.2,0000.0,0015.34,0007.21,0006.15
2022-09-06 07:51:00,,0828.9,4.99,0.00,30.0,28.9,00.0,38.7,31.9,16.0,0000.0,0015.43,0007.28,0006.20
2022-09-06 07:52:00,,0828.8,5.00,0.00,30.0,28.9,00.0,38.7,31.9,15.9,0000.0,0015.78,0007.29,0006.24
2022-09-06 07:53:00,,0828.8,5.01,0.00,30.0,29.0,00.0,38.7,31.9,15.9,0000.0,0016.05,0007.32,0006.31
2022-09-06 07:54:00,,0829.2,4.99,0.00,30.1,29.0,00.0,38.7,32.0,15.9,0000.0,0016.67,0007.42,0006.39
2022-09-06 07:55:00,,0829.2,5.01,0.00,30.1,29.1,00.0,38.8,32.0,15.8,0000.0,0016.85,0007.46,0006.45
2022-09-06 07:56:00,,0829.3,4.99,0.00,30.1,28.5,00.0,38.8,32.0,15.7,0000.0,0016.52,0007.56,0006.51
2022-09-06 07:57:00,,0829.2,5.00,0.00,30.1,27.2,00.0,38.8,31.9,15.6,0000.0,0017.02,0007.68,0006.56
2022-09-06 07:58:00,,0829.2,5.00,0.00,30.0,27.1,00.0,38.7,31.8,15.4,0000.0,0017.95,0007.67,0006.57
2022-09-06 07:59:00,,0829.1,4.99,0.00,30.0,27.2,00.0,38.7,31.7,15.5,0000.0,0017.98,0007.69,0006.56
